This demonstration page uses our WeatherBlox Daily Observations layout. Learn more.

Hourly Observations for May 3, 2015

Temp ( °F °C ) Dew Point ( °F °C ) Humidity (%) Winds ( mph kmh ) Pressure ( in mb ) Visibility ( mi km ) Precip ( " mm )
12:15 am 00:15 Clear 67 19.3 49 9.3 53 53 S 9 15 29.68 1005 10 16.0934 0 0
12:35 am 00:35 Clear 66 19 49 9.2 53 53 S 10 17 29.68 1005 10 16.0934 0 0
12:55 am 00:55 Clear 66 19 48 8.8 52 52 SSW 10 17 29.68 1005 10 16.0934 0 0
1:15 am 01:15 Clear 64 17.8 48 8.8 56 56 SSW 9 15 29.68 1005 10 16.0934 0 0
1:35 am 01:35 Clear 64 17.7 48 8.7 56 56 SSW 9 15 29.68 1005 10 16.0934 0 0
1:55 am 01:55 Clear 64 17.8 48 8.7 55 55 SW 10 17 29.68 1005 10 16.0934 0 0
2:15 am 02:15 Clear 64 17.8 47 8.5 55 55 SW 6 9 29.68 1005 10 16.0934 0 0
2:35 am 02:35 Clear 62 16.4 47 8.4 59 59 SW 6 9 29.71 1006 10 16.0934 0 0
2:55 am 02:55 Clear 61 16.1 47 8.5 61 61 SSW 6 9 29.71 1006 10 16.0934 0 0
3:15 am 03:15 Clear 59 14.9 47 8.5 66 66 WSW 3 6 29.71 1006 10 16.0934 0 0
3:35 am 03:35 Clear 60 15.4 47 8.3 63 63 Calm 29.71 1006 10 16.0934 0 0
3:55 am 03:55 Clear 60 15.8 46 8 60 60 Calm 29.71 1006 10 16.0934 0 0
4:15 am 04:15 Clear 59 15.2 46 7.7 61 61 WSW 6 9 29.74 1007 10 16.0934 0 0
4:35 am 04:35 Clear 61 16.1 45 7.1 55 55 WSW 8 13 29.74 1007 10 16.0934 0 0
4:55 am 04:55 Clear 60 15.8 44 6.7 55 55 W 9 15 29.74 1007 10 16.0934 0 0
5:15 am 05:15 Clear 59 14.9 44 6.6 58 58 W 3 6 29.71 1006 10 16.0934 0 0
5:35 am 05:35 Clear 61 15.9 44 6.5 54 54 WNW 6 9 29.71 1006 10 16.0934 0 0
5:55 am 05:55 Clear 57 13.7 44 6.5 62 62 NW 6 9 29.71 1006 10 16.0934 0 0
6:15 am 06:15 Clear 55 12.7 44 6.6 67 67 WNW 8 13 29.74 1007 10 16.0934 0 0
6:35 am 06:35 Sunny 56 13.5 43 6.3 62 62 W 8 13 29.71 1006 10 16.0934 0 0
6:55 am 06:55 Sunny 55 12.9 43 6.3 64 64 W 7 11 29.74 1007 10 16.0934 0 0
7:15 am 07:15 Sunny 57 13.7 44 6.5 62 62 W 3 6 29.71 1006 10 16.0934 0 0
7:35 am 07:35 Sunny 59 15.2 46 7.6 61 61 WSW 7 11 29.74 1007 10 16.0934 0 0
7:55 am 07:55 Sunny 65 18.2 45 7.4 50 50 WSW 8 13 29.71 1006 10 16.0934 0 0
8:15 am 08:15 Sunny 68 20 44 6.5 42 42 WSW 8 13 29.71 1006 10 16.0934 0 0
8:35 am 08:35 Sunny 69 20.3 45 7.2 43 43 SW 10 17 29.71 1006 10 16.0934 0 0
8:55 am 08:55 Sunny 69 20.8 44 6.9 41 41 SW 9 15 29.68 1005 10 16.0934 0 0
9:15 am 09:15 Sunny 71 21.5 44 6.6 38 38 WSW 13 20 29.68 1005 10 16.0934 0 0
9:35 am 09:35 Sunny 70 21.2 44 6.5 39 39 W 10 17 29.68 1005 10 16.0934 0 0
9:55 am 09:55 Sunny 71 21.6 45 7.2 40 40 W 7 11 29.68 1005 10 16.0934 0 0
10:15 am 10:15 Sunny 73 22.7 45 7 36 36 WSW 8 13 29.68 1005 10 16.0934 0 0
10:35 am 10:35 Sunny 74 23.6 44 6.6 34 34 W 9 15 29.68 1005 10 16.0934 0 0
10:55 am 10:55 Sunny 76 24.6 45 7.2 33 33 W 9 15 29.65 1004 10 16.0934 0 0
11:15 am 11:15 Sunny 77 25.2 44 6.8 31 31 W 8 13 29.65 1004 10 16.0934 0 0
11:35 am 11:35 Sunny 78 25.7 44 6.6 30 30 SW 8 13 29.65 1004 10 16.0934 0 0
11:55 am 11:55 Sunny 80 26.5 44 6.6 28 28 WSW 7 11 29.65 1004 10 16.0934 0 0
12:15 pm 12:15 Sunny 81 27.1 44 6.5 27 27 W 14 22 29.65 1004 10 16.0934 0 0
12:35 pm 12:35 Sunny 82 27.5 43 6 25 25 WSW 12 19 29.65 1004 10 16.0934 0 0
12:55 pm 12:55 Sunny 82 28 42 5.7 24 24 W 12 19 29.65 1004 10 16.0934 0 0
1:15 pm 13:15 Sunny 83 28.3 42 5.7 24 24 W 12 19 29.65 1004 10 16.0934 0 0
1:35 pm 13:35 Sunny 84 28.7 40 4.7 22 22 WSW 13 20 29.62 1003 10 16.0934 0 0
1:55 pm 13:55 Sunny 85 29.3 40 4.6 21 21 WSW 14 22 29.62 1003 10 16.0934 0 0
2:15 pm 14:15 Sunny 85 29.4 39 4 20 20 WSW 10 17 29.62 1003 10 16.0934 0 0
2:35 pm 14:35 Sunny 86 29.8 37 2.9 18 18 WSW 17 28 29.62 1003 10 16.0934 0 0
2:55 pm 14:55 Sunny 86 30.1 39 3.7 19 19 WSW 9 15 29.62 1003 10 16.0934 0 0
3:15 pm 15:15 Sunny 86 30.1 39 3.9 19 19 WSW 13 20 29.62 1003 10 16.0934 0 0
3:35 pm 15:35 Sunny 87 30.5 38 3.5 18 18 WSW 16 26 29.62 1003 10 16.0934 0 0
3:55 pm 15:55 Sunny 87 30.4 39 3.9 19 19 W 16 26 29.62 1003 10 16.0934 0 0
4:15 pm 16:15 Sunny 87 30.3 40 4.5 19 19 WSW 15 24 29.62 1003 10 16.0934 0 0
4:35 pm 16:35 Sunny 87 30.5 39 3.7 18 18 SW 6 9 29.59 1002 10 16.0934 0 0
4:55 pm 16:55 Partly Cloudy 87 30.5 38 3.3 18 18 WNW 12 19 29.59 1002 10 16.0934 0 0
5:15 pm 17:15 Partly Cloudy 87 30.7 39 4.1 18 18 W 12 19 29.59 1002 10 16.0934 0 0
5:35 pm 17:35 Partly Cloudy 88 31.1 37 2.6 16 16 W 12 19 29.62 1003 10 16.0934 0 0
5:55 pm 17:55 Sunny 86 29.9 38 3.6 19 19 WNW 7 11 29.62 1003 10 16.0934 0 0
6:15 pm 18:15 Sunny 87 30.3 35 1.7 16 16 NW 8 13 29.62 1003 10 16.0934 0 0
6:35 pm 18:35 Sunny 84 29 48 8.8 28 28 N 18 30 29.62 1003 10 16.0934 0 0
6:55 pm 18:55 Sunny 82 27.5 49 9.2 32 32 N 21 33 29.65 1004 10 16.0934 0 0
7:15 pm 19:15 Sunny 81 27.2 49 9.5 33 33 N 18 30 29.65 1004 10 16.0934 0 0
7:35 pm 19:35 Sunny 79 26 48 9.1 34 34 N 21 33 29.65 1004 10 16.0934 0 0
7:55 pm 19:55 Sunny 77 25.1 48 9.1 36 36 N 18 30 29.65 1004 10 16.0934 0 0
8:15 pm 20:15 Sunny 75 24.1 48 9 38 38 N 16 26 29.68 1005 10 16.0934 0 0
8:35 pm 20:35 Clear 74 23.1 48 8.8 40 40 N 13 20 29.71 1006 10 16.0934 0 0
8:55 pm 20:55 Clear 71 21.6 48 8.8 44 44 N 9 15 29.71 1006 10 16.0934 0 0
9:15 pm 21:15 Clear 70 20.9 48 8.8 46 46 N 9 15 29.74 1007 10 16.0934 0 0
9:35 pm 21:35 Clear 70 21 49 9.2 47 47 N 22 35 29.77 1008 10 16.0934 0 0
9:55 pm 21:55 Clear 68 20.2 47 8.1 46 46 NNE 24 39 29.8 1009 10 16.0934 0 0
10:15 pm 22:15 Clear 67 19.6 46 7.8 47 47 NNE 21 33 29.8 1009 10 16.0934 0 0
10:35 pm 22:35 Clear 66 19.1 46 8 49 49 NNE 18 30 29.83 1010 10 16.0934 0 0
10:55 pm 22:55 Clear 65 18.6 46 7.5 49 49 NNE 22 35 29.8 1009 10 16.0934 0 0
11:15 pm 23:15 Clear 65 18.6 44 6.5 45 45 NNE 23 37 29.8 1009 10 16.0934 0 0
11:35 pm 23:35 Partly Cloudy 64 18 44 6.7 48 48 N 17 28 29.85 1011 10 16.0934 0 0
11:55 pm 23:55 Partly Cloudy 63 17.4 42 5.7 46 46 NNE 17 28 29.85 1011 10 16.0934 0 0

Powered by AerisWeather